$Date,$Time,DM0201B,DM0203B,DM0205B,DM0207B,DM0209B
01/01/99,00:00:01,0,0,0,0,0
01/01/99,00:05:01,51,314,-8,266,966
01/01/99,00:10:01,46,318,-8,280,966
01/01/99,00:15:01,76,316,-8,266,966
01/01/99,00:20:01,43,299,-8,244,966
01/01/99,00:25:01,63,315,-8,225,966
01/01/99,00:30:01,103,353,-8,204,966
01/01/99,00:35:01,86,325,-8,214,966
01/01/99,00:40:01,108,334,-8,214,966
01/01/99,00:45:01,92,344,-8,224,966
01/01/99,00:50:01,78,327,-8,242,966
01/01/99,00:55:01,109,337,-8,261,966
01/01/99,01:00:01,96,339,-8,277,966
01/01/99,01:05:01,86,348,-8,296,966
01/01/99,01:10:01,92,338,-8,285,966
01/01/99,01:15:01,90,344,-8,270,966
01/01/99,01:20:01,111,344,-8,252,966
01/01/99,01:25:01,104,343,-8,244,966
01/01/99,01:30:01,78,351,-8,252,966
01/01/99,01:35:01,112,349,-8,236,966
01/01/99,01:40:01,91,348,-8,219,966
01/01/99,01:45:01,92,348,-8,227,966
01/01/99,01:50:01,94,352,-8,216,966
01/01/99,01:55:01,101,337,-8,208,966
01/01/99,02:00:01,63,346,-8,203,966
01/01/99,02:05:01,88,346,-8,197,966
01/01/99,02:10:01,76,336,-8,199,966
01/01/99,02:15:01,71,340,-8,199,966
01/01/99,02:20:01,92,337,-8,183,966
01/01/99,02:25:01,100,342,-8,191,966
01/01/99,02:30:01,96,342,-8,186,966
01/01/99,02:35:01,87,353,-8,195,966
01/01/99,02:40:01,72,354,-8,187,966
01/01/99,02:45:01,80,341,-8,197,966
01/01/99,02:50:01,79,354,-8,209,966
01/01/99,02:55:01,80,350,-8,215,966
01/01/99,03:00:01,85,356,-8,223,966
01/01/99,03:05:01,91,339,-8,217,966
01/01/99,03:10:01,81,354,-8,204,966
01/01/99,03:15:01,87,348,-8,221,966
01/01/99,03:20:01,69,327,-8,225,966
01/01/99,03:25:01,65,4,-8,203,966
01/01/99,03:30:01,76,351,-8,180,966
01/01/99,03:35:01,67,341,-8,174,966
01/01/99,03:40:01,61,1,-8,174,966
01/01/99,03:45:01,76,12,-8,201,966
01/01/99,03:50:01,64,12,-8,241,966
01/01/99,03:55:01,58,1,-8,223,966
01/01/99,04:00:01,68,3,-8,197,966
01/01/99,04:05:01,80,355,-8,213,966
01/01/99,04:10:01,79,358,-8,169,966
01/01/99,04:15:01,62,359,-8,159,966
01/01/99,04:20:01,64,348,-8,144,966
01/01/99,04:25:01,65,358,-9,115,966
01/01/99,04:30:01,67,337,-8,90,966
01/01/99,04:35:01,57,335,-8,59,966
01/01/99,04:40:01,25,306,-9,59,966
01/01/99,04:45:01,38,261,-9,59,966
01/01/99,04:50:01,62,260,-9,77,966
01/01/99,04:55:01,73,234,-9,105,966
01/01/99,05:00:01,73,239,-9,126,966
01/01/99,05:05:01,84,208,-9,142,966
01/01/99,05:10:01,69,202,-9,158,966
01/01/99,05:15:01,47,200,-9,173,966
01/01/99,05:20:01,36,189,-9,177,966
01/01/99,05:25:01,30,189,-9,194,966
01/01/99,05:30:01,6,189,-8,204,966
01/01/99,05:35:01,6,189,-8,214,966
01/01/99,05:40:01,6,189,-7,233,966
01/01/99,05:45:01,6,112,-7,258,966
01/01/99,05:50:01,6,96,-6,245,966
01/01/99,05:55:01,11,287,-6,229,966
01/01/99,06:00:01,9,80,-6,219,966
01/01/99,06:05:01,6,176,-7,204,966
01/01/99,06:10:01,70,149,-7,204,966
01/01/99,06:15:01,38,149,-7,206,966
01/01/99,06:20:01,45,149,-7,204,966
01/01/99,06:25:01,41,161,-7,204,966
01/01/99,06:30:01,58,161,-7,205,966
01/01/99,06:35:01,27,140,-7,211,966
01/01/99,06:40:01,39,158,-7,205,966
01/01/99,06:45:01,25,158,-7,201,966
01/01/99,06:50:01,41,168,-7,207,966
01/01/99,06:55:01,31,168,-7,215,966
01/01/99,07:00:01,42,168,-6,228,966
01/01/99,07:05:01,50,168,-6,230,966
01/01/99,07:10:01,50,168,-6,222,966
01/01/99,07:15:01,29,168,-6,222,966
01/01/99,07:20:01,18,168,-6,228,966
01/01/99,07:25:01,8,168,-5,220,966
01/01/99,07:30:01,8,168,-5,224,966
01/01/99,07:35:01,20,213,-5,245,966
01/01/99,07:40:01,10,213,-5,261,966
01/01/99,07:45:01,10,213,-4,274,966
01/01/99,07:50:01,0,279,-4,263,966
01/01/99,07:55:01,20,324,-5,251,966
01/01/99,08:00:01,9,324,-5,239,966
01/01/99,08:05:01,30,336,-6,229,966
01/01/99,08:10:01,20,325,-6,221,966
01/01/99,08:15:01,20,325,-6,215,966
01/01/99,08:20:01,9,325,-6,211,966
01/01/99,08:25:01,9,325,-6,205,966
01/01/99,08:30:01,9,325,-6,199,966
01/01/99,08:35:01,9,325,-6,189,966
01/01/99,08:40:01,9,325,-6,183,966
01/01/99,08:45:01,9,325,-6,177,966
01/01/99,08:50:01,9,325,-6,175,966
01/01/99,08:55:01,9,325,-6,171,966
01/01/99,09:00:01,9,325,-6,167,966
01/01/99,09:05:01,9,325,-6,165,966
01/01/99,09:10:01,9,325,-6,161,966
01/01/99,09:15:01,9,325,-6,159,966
01/01/99,09:20:01,9,325,-6,157,966
01/01/99,09:25:01,9,325,-6,155,966
01/01/99,09:30:01,9,325,-6,153,966
01/01/99,09:35:01,9,325,-6,153,966
01/01/99,09:40:01,9,325,-6,151,966
01/01/99,09:45:01,9,325,-6,149,966
01/01/99,09:50:01,9,277,-6,147,966
01/01/99,09:55:01,9,264,-6,143,966
01/01/99,10:00:01,9,264,-6,141,966
01/01/99,10:05:01,9,264,-6,139,966
01/01/99,10:10:01,9,264,-6,137,966
01/01/99,10:15:01,9,264,-6,131,966
01/01/99,10:20:01,9,264,-6,129,966
01/01/99,10:25:01,9,264,-6,127,966
01/01/99,10:30:01,9,264,-6,123,966
01/01/99,10:35:01,9,264,-6,121,966
01/01/99,10:40:01,9,264,-6,119,966
01/01/99,10:45:01,9,243,-7,117,966
01/01/99,10:50:01,9,243,-7,115,966
01/01/99,10:55:01,9,243,-7,113,966
01/01/99,11:00:01,9,243,-7,111,966
01/01/99,11:05:01,9,243,-7,111,966
01/01/99,11:10:01,9,243,-7,109,966
01/01/99,11:15:01,9,243,-7,107,966
01/01/99,11:20:01,9,243,-7,107,966
01/01/99,11:25:01,9,243,-7,105,966
01/01/99,11:30:01,9,243,-7,105,966
01/01/99,11:35:01,9,243,-7,103,966
01/01/99,11:40:01,9,243,-7,101,966
01/01/99,11:45:01,9,243,-7,101,966
01/01/99,11:50:01,9,243,-7,99,966
01/01/99,11:55:01,9,243,-7,99,966
01/01/99,12:00:01,9,243,-7,99,966
01/01/99,12:05:01,9,243,-7,99,966
01/01/99,12:10:01,9,243,-7,97,966
01/01/99,12:15:01,9,243,-7,97,966
01/01/99,12:20:01,9,243,-7,95,966
01/01/99,12:25:01,9,201,-7,95,966
01/01/99,12:30:01,9,191,-7,93,966
01/01/99,12:35:01,9,191,-7,93,964
01/01/99,12:40:01,9,191,-7,93,964
01/01/99,12:45:01,9,191,-7,93,964
01/01/99,12:50:01,9,191,-7,93,964
01/01/99,12:55:01,9,181,-7,93,964
01/01/99,13:00:01,9,171,-7,93,964
01/01/99,13:05:01,9,156,-7,93,964
01/01/99,13:10:01,9,156,-7,93,964
01/01/99,13:15:01,9,156,-7,93,964
01/01/99,13:20:01,9,156,-7,93,964
01/01/99,13:25:01,9,156,-7,93,964
01/01/99,13:30:01,9,156,-7,93,964
01/01/99,13:35:01,9,156,-7,93,964
01/01/99,13:40:01,9,156,-7,95,964
01/01/99,13:45:01,9,156,-7,95,964
01/01/99,13:50:01,9,156,-7,95,964
01/01/99,13:55:01,9,156,-7,95,964
01/01/99,14:00:01,9,156,-7,95,964
01/01/99,14:05:01,9,156,-7,95,964
01/01/99,14:10:01,9,156,-7,95,964
01/01/99,14:15:01,9,156,-7,95,964
01/01/99,14:20:01,9,156,-7,95,964
01/01/99,14:25:01,9,156,-7,97,964
01/01/99,14:30:01,9,156,-7,97,964
01/01/99,14:35:01,9,156,-7,97,964
01/01/99,14:40:01,9,156,-7,97,964
01/01/99,14:45:01,9,156,-7,99,964
01/01/99,14:50:01,9,156,-7,101,964
01/01/99,14:55:01,9,156,-7,101,964
01/01/99,15:00:01,9,156,-7,103,964
01/01/99,15:05:01,9,166,-7,105,964
01/01/99,15:10:01,9,166,-7,107,964
01/01/99,15:15:01,9,166,-7,107,964
01/01/99,15:20:01,9,166,-7,107,964
01/01/99,15:25:01,9,166,-7,109,964
01/01/99,15:30:01,9,166,-7,113,964
01/01/99,15:35:01,9,166,-7,115,964
01/01/99,15:40:01,9,166,-7,117,964
01/01/99,15:45:01,9,166,-7,119,964
01/01/99,15:50:01,9,166,-7,121,964
01/01/99,15:55:01,9,166,-7,123,964
01/01/99,16:00:01,9,166,-7,125,964
01/01/99,16:05:01,9,166,-7,129,964
01/01/99,16:10:01,9,166,-7,133,964
01/01/99,16:15:01,9,166,-7,137,964
01/01/99,16:20:01,9,166,-7,145,964
01/01/99,16:25:01,9,166,-7,149,964
01/01/99,16:30:01,9,166,-7,151,964
01/01/99,16:35:01,19,166,-7,151,964
01/01/99,16:40:01,19,166,-7,153,964
01/01/99,16:45:01,9,166,-7,157,964
01/01/99,16:50:01,9,166,-7,163,964
01/01/99,16:55:01,9,166,-7,165,964
01/01/99,17:00:01,9,176,-7,165,964
01/01/99,17:05:01,9,176,-7,167,964
01/01/99,17:10:01,9,176,-6,167,964
01/01/99,17:15:01,9,176,-6,169,964
01/01/99,17:20:01,9,176,-6,171,964
01/01/99,17:25:01,9,176,-6,171,964
01/01/99,17:30:01,9,176,-6,173,964
01/01/99,17:35:01,9,176,-6,177,964
01/01/99,17:40:01,9,176,-6,183,964
01/01/99,17:45:01,9,176,-6,191,964
01/01/99,17:50:01,9,176,-6,193,964
01/01/99,17:55:01,9,176,-6,197,964
01/01/99,18:00:01,19,155,-6,203,964
01/01/99,18:05:01,9,145,-6,209,964
01/01/99,18:10:01,9,145,-6,211,964
01/01/99,18:15:01,29,155,-6,209,964
01/01/99,18:20:01,33,166,-6,199,964
01/01/99,18:25:01,21,166,-6,177,964
01/01/99,18:30:01,21,178,-7,160,964
01/01/99,18:35:01,32,178,-7,154,964
01/01/99,18:40:01,44,178,-7,160,964
01/01/99,18:45:01,57,188,-7,162,964
01/01/99,18:50:01,44,175,-8,154,964
01/01/99,18:55:01,81,186,-8,285,964
01/01/99,19:00:01,91,173,-8,395,964
01/01/99,19:05:01,113,184,-8,391,964
01/01/99,19:10:01,105,174,-8,163,964
01/01/99,19:15:01,134,174,-8,459,964
01/01/99,19:20:01,144,160,-8,429,964
01/01/99,19:25:01,135,160,-8,299,964
01/01/99,19:30:01,118,160,-8,315,964
01/01/99,19:35:01,130,152,-8,210,964
01/01/99,19:40:01,116,172,-8,205,964
01/01/99,19:45:01,112,173,-8,173,964
01/01/99,19:50:01,120,172,-8,193,964
01/01/99,19:55:01,186,170,-8,168,964
01/01/99,20:00:01,175,170,-8,170,964
01/01/99,20:05:01,193,170,-8,180,964
01/01/99,20:10:01,194,170,-8,198,964
01/01/99,20:15:01,213,160,-8,225,964
01/01/99,20:20:01,186,160,-8,262,964
01/01/99,20:25:01,170,160,-8,311,964
01/01/99,20:30:01,245,153,-8,453,964
01/01/99,20:35:01,200,153,-8,444,964
01/01/99,20:40:01,238,154,-8,417,964
01/01/99,20:45:01,224,164,-8,302,964
01/01/99,20:50:01,247,164,-8,238,964
01/01/99,20:55:01,203,154,-8,231,964
01/01/99,21:00:01,257,170,-8,223,964
01/01/99,21:05:01,289,172,-8,204,964
01/01/99,21:10:01,289,172,-8,243,964
01/01/99,21:15:01,290,162,-8,306,964
01/01/99,21:20:01,252,163,-8,501,964
01/01/99,21:25:01,283,163,-8,308,964
01/01/99,21:30:01,260,163,-8,653,964
01/01/99,21:35:01,294,173,-7,594,964
01/01/99,21:40:01,262,171,-7,441,964
01/01/99,21:45:01,269,162,-7,406,964
01/01/99,21:50:01,254,162,-7,378,964
01/01/99,21:55:01,269,172,-7,354,964
01/01/99,22:00:01,253,172,-7,328,964
01/01/99,22:05:01,229,172,-7,322,964
01/01/99,22:10:01,220,178,-8,318,964
01/01/99,22:15:01,238,178,-8,324,964
01/01/99,22:20:01,319,176,-8,322,962
01/01/99,22:25:01,289,175,-8,316,962
01/01/99,22:30:01,207,175,-8,326,962
01/01/99,22:35:01,218,175,-7,326,962
01/01/99,22:40:01,219,175,-7,296,962
01/01/99,22:45:01,281,165,-8,288,962
01/01/99,22:50:01,219,165,-8,344,962
01/01/99,22:55:01,209,165,-7,427,962
01/01/99,23:00:01,294,169,-7,435,962
01/01/99,23:05:01,246,170,-7,429,962
01/01/99,23:10:01,233,158,-7,455,962
01/01/99,23:15:01,290,151,-7,421,962
01/01/99,23:20:01,267,171,-7,381,962
01/01/99,23:25:01,293,161,-7,317,962
01/01/99,23:30:01,201,171,-7,273,962
01/01/99,23:35:01,231,163,-7,243,962
01/01/99,23:40:01,238,157,-7,246,962
01/01/99,23:45:01,252,163,-7,275,962
01/01/99,23:50:01,261,153,-7,277,962
01/01/99,23:55:01,229,164,-7,267,962
01/02/99,00:00:01,319,162,-8,273,962
